Terminal Aerodrome Forecast
Issued by NWS Pittsburgh, PA

Current Version | Previous Version | Graphics & Text | Print | Product List | Glossary On
Versions: 1 2 3 4 5 6 7 8 9 10 11 12 13 14 15 16 17 18 19 20 21 22 23 24 25 26 27 28 29 30 31
000
FTUS41 KPBZ 212300
TAFPIT
TAF
KPIT 212320Z 2200/2306 29015G25KT P6SM FEW035
     FM220300 30012KT P6SM SCT030
     FM220700 30010KT P6SM BKN020
     FM221300 31011KT P6SM BKN035=

USA.gov is the U.S. government's official web portal to all federal, state and local government web resources and services.